FW0932 Weather Reports


Display with metric or nautical units.
time (UTC)temp
F
wind
direction
speed
MPH
gust
MPH
rain 1hr
in
rain 24hr
in
rain mn
in
humidity
%
barometer
mb
20260509043203 76 49 1.0 3.0 0.00 0.00 0.00 86 1016.0
20260509042703 76 74 2.0 9.0 0.00 0.00 0.00 86 1016.1
20260509041703 76 84 2.0 5.0 0.00 0.00 0.00 86 1016.2
20260509040203 76 70 2.0 3.0 0.00 0.00 0.00 86 1016.3
20260509035702 76 79 2.0 5.0 0.00 0.00 0.00 86 1016.4
20260509035203 76 91 2.0 3.0 0.00 0.00 0.00 86 1016.3
20260509034703 76 66 5.0 8.0 0.00 0.00 0.00 86 1016.4
20260509034203 76 99 4.0 10.0 0.00 0.00 0.00 85 1016.2
20260509033703 76 99 2.0 5.0 0.00 0.00 0.00 85 1016.3
20260509033203 77 52 3.0 6.0 0.00 0.00 0.00 85 1016.4
20260509032703 77 53 4.0 8.0 0.00 0.00 0.00 85 1016.5
20260509032203 77 73 2.0 7.0 0.00 0.00 0.00 85 1016.5
20260509031703 77 84 3.0 6.0 0.00 0.00 0.00 85 1016.5
20260509031203 77 87 3.0 6.0 0.00 0.00 0.00 85 1016.5
20260509030703 77 88 3.0 8.0 0.00 0.00 0.00 85 1016.5
20260509030203 77 62 2.0 6.0 0.00 0.00 0.00 86 1016.4
20260509025703 77 84 2.0 8.0 0.00 0.00 0.00 86 1016.5
20260509025203 76 94 3.0 8.0 0.00 0.00 0.00 85 1016.6
20260509024704 76 75 4.0 8.0 0.00 0.00 0.00 85 1016.5
20260509024203 76 100 3.0 8.0 0.00 0.00 0.00 85 1016.5
20260509023703 76 85 4.0 12.0 0.00 0.00 0.00 85 1016.4
20260509023204 77 83 3.0 7.0 0.00 0.00 0.00 85 1016.4
20260509022703 77 83 3.0 7.0 0.00 0.00 0.00 85 1016.4
20260509022204 76 160 2.0 5.0 0.00 0.00 0.00 86 1016.5
20260509021703 76 61 3.0 8.0 0.00 0.00 0.00 87 1016.5
20260509021203 76 84 5.0 12.0 0.00 0.00 0.00 87 1016.5
20260509020703 76 57 2.0 7.0 0.00 0.00 0.00 88 1016.5
20260509020203 76 63 5.0 10.0 0.00 0.00 0.00 87 1016.5
20260509015703 76 84 5.0 10.0 0.00 0.00 0.00 88 1016.6
20260509015203 76 58 3.0 7.0 0.00 0.00 0.00 87 1016.8
20260509014703 76 88 3.0 5.0 0.00 0.00 0.00 87 1016.7
20260509014203 76 94 1.0 7.0 0.00 0.00 0.00 88 1016.5
20260509013704 76 85 2.0 6.0 0.00 0.00 0.00 87 1016.6
20260509013203 76 90 3.0 7.0 0.00 0.00 0.00 87 1016.5
20260509012703 76 96 3.0 9.0 0.00 0.00 0.00 88 1016.5
20260509012203 76 76 5.0 9.0 0.00 0.00 0.00 87 1016.4
20260509011703 76 26 2.0 5.0 0.00 0.00 0.00 89 1016.6
20260509011203 76 82 4.0 9.0 0.00 0.00 0.00 88 1016.5
20260509010703 76 60 3.0 7.0 0.00 0.00 0.00 88 1016.5
20260509010203 75 74 3.0 8.0 0.00 0.00 0.00 89 1016.4
20260509005703 75 45 2.0 8.0 0.00 0.00 0.00 90 1016.3
20260509005203 75 76 2.0 5.0 0.00 0.00 0.00 89 1016.2
20260509004703 75 75 3.0 6.0 0.00 0.00 0.00 89 1016.1
20260509004203 75 29 2.0 6.0 0.00 0.00 0.00 89 1016.2
20260509003204 75 81 1.0 3.0 0.00 0.00 0.00 90 1015.9
20260509002704 75 58 2.0 3.0 0.00 0.00 0.00 91 1015.9
20260509002203 75 78 1.0 3.0 0.00 0.00 0.00 91 1015.8
20260509001703 75 41 1.0 2.0 0.00 0.00 0.00 91 1015.7
20260509001204 75 62 1.0 2.0 0.00 0.00 0.00 91 1015.8
20260509000703 74 73 2.0 5.0 0.00 0.00 0.00 92 1015.7
20260509000204 74 60 2.0 6.0 0.00 0.00 0.00 92 1015.6
20260508235203 74 72 2.0 5.0 0.00 0.00 0.00 92 1015.6
20260508234703 74 74 2.0 6.0 0.00 0.00 0.00 92 1015.6
20260508234203 74 95 4.0 10.0 0.00 0.00 0.00 92 1015.4
20260508233703 74 88 2.0 7.0 0.00 0.00 0.00 92 1015.5
20260508233203 74 75 3.0 8.0 0.00 0.00 0.00 92 1015.5
20260508232703 74 63 2.0 5.0 0.00 0.00 0.00 92 1015.5
20260508231203 74 98 3.0 6.0 0.00 0.00 0.00 92 1015.3
20260508230703 74 77 2.0 5.0 0.00 0.00 0.00 92 1015.3
20260508230203 74 84 1.0 3.0 0.00 0.00 0.00 92 1015.2
20260508225703 74 66 1.0 3.0 0.00 0.00 0.00 92 1015.1
20260508225203 74 55 1.0 3.0 0.00 0.00 0.00 92 1015.1
20260508224704 74 40 2.0 3.0 0.00 0.00 0.00 92 1014.9
20260508224203 74 86 2.0 3.0 0.00 0.00 0.00 92 1015.0
20260508223704 74 59 2.0 7.0 0.00 0.00 0.00 92 1014.9
20260508223203 74 72 2.0 6.0 0.00 0.00 0.00 92 1014.7
20260508222703 74 67 3.0 7.0 0.00 0.00 0.00 92 1014.7
20260508222203 74 34 2.0 3.0 0.00 0.00 0.00 92 1014.6
20260508221703 74 43 0.0 5.0 0.00 0.00 0.00 92 1014.5
20260508221203 74 69 2.0 6.0 0.00 0.00 0.00 92 1014.4
20260508220703 74 103 2.0 5.0 0.00 0.00 0.00 92 1014.4
20260508215203 74 78 1.0 3.0 0.00 0.00 0.00 92 1014.2
20260508214704 74 214 0.0 3.0 0.00 0.00 0.00 92 1014.1
20260508214203 74 86 3.0 6.0 0.00 0.00 0.00 92 1014.1
20260508213703 74 103 1.0 5.0 0.00 0.00 0.00 92 1014.1
20260508213203 74 93 3.0 8.0 0.00 0.00 0.00 92 1014.1
20260508212703 74 67 2.0 3.0 0.00 0.00 0.00 92 1014.0
20260508212203 74 13 2.0 5.0 0.00 0.00 0.00 92 1013.9
20260508211703 74 68 2.0 5.0 0.00 0.00 0.00 92 1014.0
20260508211203 74 89 2.0 5.0 0.00 0.00 0.00 92 1013.9
20260508210703 74 61 1.0 2.0 0.00 0.00 0.00 93 1013.8
20260508210204 74 117 1.0 3.0 0.00 0.00 0.00 93 1013.7
20260508205203 74 73 2.0 5.0 0.00 0.00 0.00 93 1013.5
20260508204703 74 67 2.0 6.0 0.00 0.00 0.00 93 1013.5
20260508204203 74 44 3.0 7.0 0.00 0.00 0.00 92 1013.4
20260508203204 74 75 2.0 3.0 0.00 0.00 0.00 93 1013.3
20260508202703 74 36 1.0 5.0 0.00 0.00 0.00 93 1013.4
20260508202203 75 45 3.0 6.0 0.00 0.00 0.00 93 1013.2
20260508201703 75 72 2.0 5.0 0.00 0.00 0.00 93 1013.1
20260508201204 75 25 2.0 3.0 0.00 0.00 0.00 93 1013.2
20260508200703 75 123 1.0 3.0 0.00 0.00 0.00 94 1013.2
20260508200204 75 78 1.0 2.0 0.00 0.00 0.00 93 1013.1
20260508195703 75 70 0.0 3.0 0.00 0.00 0.00 94 1013.0
20260508195204 75 86 3.0 7.0 0.00 0.00 0.00 93 1013.0
20260508194703 75 79 2.0 3.0 0.00 0.00 0.00 94 1013.1
20260508194204 75 76 3.0 5.0 0.00 0.00 0.00 93 1013.2
20260508193703 75 86 3.0 8.0 0.00 0.00 0.00 94 1013.2
20260508192204 75 53 1.0 5.0 0.00 0.00 0.00 95 1013.1
20260508191703 75 176 1.0 3.0 0.00 0.00 0.00 95 1013.3
20260508191203 75 121 1.0 5.0 0.00 0.00 0.00 95 1013.2
20260508190703 75 69 3.0 6.0 0.00 0.00 0.00 95 1013.1
20260508190204 75 99 3.0 7.0 0.00 0.00 0.00 95 1013.1
20260508185704 75 83 1.0 3.0 0.00 0.00 0.00 95 1013.2
20260508185203 75 83 0.0 2.0 0.00 0.00 0.00 95 1013.2
20260508184703 75 353 0.0 0.0 0.00 0.00 0.00 95 1013.2
20260508184203 75 354 1.0 2.0 0.00 0.00 0.00 95 1013.0
20260508183703 75 323 1.0 3.0 0.00 0.00 0.00 95 1013.1
20260508183204 75 330 1.0 1.0 0.00 0.00 0.00 95 1013.1
20260508182704 75 330 0.0 1.0 0.00 0.00 0.00 95 1013.2
20260508182203 75 327 0.0 1.0 0.00 0.00 0.00 94 1013.2
20260508181704 75 326 0.0 1.0 0.00 0.00 0.00 94 1013.4
20260508180204 76 354 2.0 3.0 0.00 0.00 0.00 93 1013.7
20260508175703 76 3 2.0 3.0 0.00 0.00 0.00 93 1013.9
20260508175203 76 26 0.0 2.0 0.00 0.00 0.00 93 1014.0
20260508174703 76 70 1.0 3.0 0.00 0.00 0.00 93 1014.0
20260508174204 76 41 1.0 3.0 0.00 0.00 0.00 92 1013.9
20260508173704 77 88 1.0 3.0 0.00 0.00 0.00 92 1013.9
20260508173204 77 31 2.0 3.0 0.00 0.00 0.00 93 1013.8
20260508172703 77 126 1.0 2.0 0.00 0.00 0.00 93 1013.9
20260508172203 77 69 2.0 5.0 0.00 0.00 0.00 92 1013.9
20260508171703 78 55 2.0 8.0 0.00 0.00 0.00 92 1013.8
20260508171203 78 4 1.0 5.0 0.00 0.00 0.00 92 1013.7
20260508170704 78 329 0.0 5.0 0.00 0.00 0.00 92 1013.7
20260508170203 79 284 0.0 3.0 0.00 0.00 0.00 92 1013.6
20260508165203 79 320 0.0 1.0 0.00 0.00 0.00 91 1013.8
20260508164704 79 5 0.0 2.0 0.00 0.00 0.00 91 1013.8
20260508164203 79 314 2.0 3.0 0.00 0.00 0.00 91 1013.8
20260508163705 79 319 1.0 2.0 0.00 0.00 0.00 91 1013.8
20260508163203 80 5 1.0 3.0 0.00 0.00 0.00 91 1013.8
20260508162703 80 26 1.0 3.0 0.00 0.00 0.00 90 1013.9
20260508161704 80 70 1.0 3.0 0.00 0.00 0.00 91 1013.9
20260508161203 80 337 0.0 3.0 0.00 0.00 0.00 91 1014.0
20260508160704 80 308 1.0 3.0 0.00 0.00 0.00 90 1014.1
20260508160205 80 330 2.0 3.0 0.00 0.00 0.00 89 1014.1
20260508155704 80 327 1.0 3.0 0.00 0.00 0.00 89 1014.0
20260508155204 80 75 2.0 3.0 0.00 0.00 0.00 89 1014.1
20260508154704 80 38 2.0 5.0 0.00 0.00 0.00 89 1014.1
20260508154204 81 73 1.0 2.0 0.00 0.00 0.00 89 1014.1
20260508153704 81 19 1.0 3.0 0.00 0.00 0.00 89 1014.1
20260508153203 81 355 2.0 3.0 0.00 0.00 0.00 88 1014.2
20260508152703 81 70 1.0 2.0 0.00 0.00 0.00 88 1014.2
20260508150704 81 70 1.0 2.0 0.00 0.00 0.00 87 1014.1
20260508145704 81 163 2.0 3.0 0.00 0.00 0.00 88 1014.2
20260508145204 81 156 1.0 3.0 0.00 0.00 0.00 88 1014.3
20260508144204 81 178 0.0 2.0 0.00 0.00 0.00 88 1014.4
20260508143704 81 48 1.0 2.0 0.00 0.00 0.00 88 1014.3
20260508143204 81 61 0.0 1.0 0.00 0.00 0.00 88 1014.4
20260508142703 81 49 1.0 2.0 0.00 0.00 0.00 88 1014.4
20260508142204 81 28 1.0 3.0 0.00 0.00 0.00 88 1014.4
20260508141704 81 24 1.0 2.0 0.00 0.00 0.00 87 1014.4
20260508140704 82 73 1.0 2.0 0.00 0.00 0.00 87 1014.3
20260508140203 82 106 0.0 1.0 0.00 0.00 0.00 87 1014.2
20260508135704 82 154 1.0 2.0 0.00 0.00 0.00 87 1014.1
20260508135204 82 79 1.0 3.0 0.00 0.00 0.00 87 1014.1
20260508134704 82 147 1.0 3.0 0.00 0.00 0.00 87 1014.2
20260508134204 82 229 1.0 2.0 0.00 0.00 0.00 87 1014.1
20260508133704 82 156 1.0 3.0 0.00 0.00 0.00 87 1014.0
20260508133204 82 145 2.0 5.0 0.00 0.00 0.00 87 1013.9
20260508132704 82 140 2.0 3.0 0.00 0.00 0.00 87 1013.8
20260508131704 82 162 2.0 3.0 0.00 0.00 0.00 87 1013.9
20260508131204 82 154 3.0 6.0 0.00 0.00 0.00 86 1013.8
20260508130704 82 138 3.0 6.0 0.00 0.00 0.00 86 1013.8
20260508130203 82 159 2.0 3.0 0.00 0.00 0.00 86 1013.9
20260508125704 82 126 1.0 3.0 0.00 0.00 0.00 86 1013.8
20260508125203 82 24 0.0 2.0 0.00 0.00 0.00 86 1013.7
20260508124704 82 231 1.0 2.0 0.00 0.00 0.00 86 1013.7
20260508124203 82 72 0.0 1.0 0.00 0.00 0.00 86 1013.6
20260508123702 82 72 0.0 1.0 0.00 0.00 0.00 86 1013.6
20260508123203 82 72 0.0 1.0 0.00 0.00 0.00 86 1013.5
20260508122703 82 72 1.0 3.0 0.00 0.00 0.00 86 1013.4
20260508122203 82 40 1.0 1.0 0.00 0.00 0.00 85 1013.3
20260508121703 82 195 0.0 2.0 0.00 0.00 0.00 85 1013.3
20260508121202 82 168 0.0 2.0 0.00 0.00 0.00 85 1013.2
20260508120703 82 153 0.0 1.0 0.00 0.00 0.00 85 1013.2
20260508120203 82 157 0.0 1.0 0.00 0.00 0.00 85 1013.1
20260508115703 82 157 1.0 3.0 0.00 0.00 0.00 85 1013.0
20260508115202 82 127 1.0 5.0 0.00 0.00 0.00 85 1012.8
20260508114702 82 147 2.0 6.0 0.00 0.00 0.00 85 1012.8
20260508114203 82 142 2.0 6.0 0.00 0.00 0.00 85 1012.7
20260508113703 82 141 2.0 6.0 0.00 0.00 0.00 85 1012.7
20260508113202 82 153 3.0 6.0 0.00 0.00 0.00 85 1012.7
20260508112703 83 149 1.0 6.0 0.00 0.00 0.00 84 1012.8
20260508112202 83 114 0.0 2.0 0.00 0.00 0.00 85 1012.7
20260508111703 83 153 2.0 3.0 0.00 0.00 0.00 84 1012.6
20260508111202 83 242 0.0 3.0 0.00 0.00 0.00 84 1012.5
20260508110703 83 212 1.0 3.0 0.00 0.00 0.00 84 1012.6
20260508110202 83 215 2.0 3.0 0.00 0.00 0.00 84 1012.4
20260508105203 83 141 1.0 5.0 0.00 0.00 0.00 84 1012.2
20260508104203 84 157 0.0 3.0 0.00 0.00 0.00 83 1012.2
20260508103203 84 82 1.0 2.0 0.00 0.00 0.00 83 1012.1
20260508102703 84 66 1.0 1.0 0.00 0.00 0.00 82 1012.0
20260508102202 84 62 0.0 2.0 0.00 0.00 0.00 82 1011.9
20260508100203 84 80 1.0 2.0 0.00 0.00 0.00 82 1011.8
20260508095703 84 85 1.0 2.0 0.00 0.00 0.00 82 1011.6
20260508095203 84 81 2.0 3.0 0.00 0.00 0.00 82 1011.5
20260508093702 84 84 1.0 2.0 0.00 0.00 0.00 82 1011.3
20260508092702 84 78 1.0 2.0 0.00 0.00 0.00 83 1011.3
20260508092203 84 59 1.0 3.0 0.00 0.00 0.00 83 1011.3
20260508091703 84 82 0.0 1.0 0.00 0.00 0.00 83 1011.2
20260508091203 84 82 0.0 1.0 0.00 0.00 0.00 83 1011.4
20260508090703 84 79 1.0 2.0 0.00 0.00 0.00 83 1011.4
20260508090202 84 77 0.0 1.0 0.00 0.00 0.00 83 1011.3
20260508085703 83 77 1.0 2.0 0.00 0.00 0.00 83 1011.3
20260508085203 83 73 1.0 2.0 0.00 0.00 0.00 83 1011.3
20260508084703 83 82 0.0 2.0 0.00 0.00 0.00 83 1011.3
20260508083703 83 84 0.0 1.0 0.00 0.00 0.00 84 1011.3
20260508083203 83 74 1.0 2.0 0.00 0.00 0.00 84 1011.3
20260508082703 83 65 0.0 1.0 0.00 0.00 0.00 84 1011.4
20260508082203 83 65 1.0 1.0 0.00 0.00 0.00 84 1011.4
20260508081702 83 67 1.0 2.0 0.00 0.00 0.00 84 1011.4
20260508081203 84 86 1.0 3.0 0.00 0.00 0.00 84 1011.4
20260508080703 84 57 0.0 1.0 0.00 0.00 0.00 85 1011.5
20260508080202 84 80 2.0 5.0 0.00 0.00 0.00 83 1011.5
20260508074702 85 79 3.0 5.0 0.00 0.00 0.00 79 1011.5
20260508074203 85 90 1.0 3.0 0.00 0.00 0.00 78 1011.5
20260508073203 85 146 1.0 3.0 0.00 0.00 0.00 79 1011.4
20260508072702 85 151 2.0 6.0 0.00 0.00 0.00 79 1011.5
20260508072203 85 137 3.0 6.0 0.00 0.00 0.00 80 1011.5
20260508071703 86 144 3.0 6.0 0.00 0.00 0.00 79 1011.5
20260508070703 86 163 2.0 5.0 0.00 0.00 0.00 79 1011.5
20260508070203 86 127 2.0 5.0 0.00 0.00 0.00 79 1011.5
20260508065703 86 128 2.0 5.0 0.00 0.00 0.00 79 1011.5
20260508064203 86 144 5.0 8.0 0.00 0.00 0.00 78 1011.7
20260508063702 86 171 5.0 8.0 0.00 0.00 0.00 76 1011.8
20260508062703 87 171 4.0 9.0 0.00 0.00 0.00 74 1011.7
20260508062204 87 152 1.0 6.0 0.00 0.00 0.00 74 1011.7
20260508061703 88 282 2.0 7.0 0.00 0.00 0.00 74 1011.8
20260508061203 88 272 3.0 7.0 0.00 0.00 0.00 74 1011.6
20260508060703 89 302 5.0 10.0 0.00 0.00 0.00 72 1011.6
20260508055702 90 321 4.0 7.0 0.00 0.00 0.00 72 1011.6
20260508055203 89 6 1.0 5.0 0.00 0.00 0.00 72 1011.7
20260508054703 88 308 3.0 6.0 0.00 0.00 0.00 74 1011.7
20260508054203 87 356 3.0 7.0 0.00 0.00 0.00 74 1011.7
20260508053703 88 347 5.0 9.0 0.00 0.00 0.00 73 1011.7
20260508053203 88 7 3.0 7.0 0.00 0.00 0.00 73 1011.8
20260508052703 88 307 3.0 8.0 0.00 0.00 0.00 73 1011.8
20260508051703 88 303 3.0 10.0 0.00 0.00 0.00 73 1011.9
20260508051203 88 294 5.0 8.0 0.00 0.00 0.00 73 1012.1
20260508050703 89 33 5.0 8.0 0.00 0.00 0.00 73 1012.0
20260508050203 88 24 3.0 7.0 0.00 0.00 0.00 72 1012.0
20260508045703 89 285 3.0 6.0 0.00 0.00 0.00 72 1012.2
20260508045202 88 277 3.0 6.0 0.00 0.00 0.00 73 1012.3
20260508044703 87 298 1.0 3.0 0.00 0.00 0.00 75 1012.2
20260508044203 87 266 3.0 6.0 0.00 0.00 0.00 75 1012.3
20260508043703 87 359 3.0 7.0 0.00 0.00 0.00 73 1012.5